GFSNE_prec_precacc24_096.txt.gz
Total_Precipitation_Accumulation
0.11 0.12 0.09 0.05 0.03 0.02 0.02 0.03 0.08 0.06 0.01 0.01 0.01 0.00 0.01 0.00 0.00 0.00 0.00 0.00 0.00 0.00 0.00 0.00 0.00 0.00 0.00 0.00 0.00 0.00 0.00 0.00 0.01 0.02 0.03 0.03 0.04 0.05
0.12 0.11 0.08 0.06 0.07 0.07 0.05 0.05 0.10 0.14 0.08 0.01 0.01 0.02 0.05 0.04 0.01 0.01 0.00 0.00 0.00 0.01 0.01 0.02 0.02 0.02 0.02 0.03 0.03 0.04 0.04 0.05 0.05 0.05 0.05 0.05 0.05 0.05
0.06 0.08 0.06 0.06 0.09 0.10 0.12 0.11 0.11 0.15 0.13 0.04 0.03 0.01 0.08 0.07 0.02 0.01 0.00 0.00 0.00 0.02 0.04 0.04 0.05 0.05 0.05 0.06 0.07 0.09 0.09 0.09 0.08 0.08 0.09 0.09 0.08 0.09
0.05 0.04 0.04 0.08 0.09 0.07 0.09 0.08 0.07 0.05 0.09 0.07 0.01 0.02 0.02 0.04 0.05 0.04 0.01 0.01 0.01 0.02 0.03 0.04 0.05 0.05 0.05 0.06 0.08 0.09 0.09 0.09 0.10 0.11 0.11 0.10 0.10 0.12
0.08 0.07 0.04 0.05 0.04 0.03 0.04 0.03 0.02 0.02 0.03 0.04 0.01 0.03 0.05 0.06 0.08 0.07 0.06 0.05 0.02 0.02 0.05 0.06 0.05 0.05 0.08 0.12 0.15 0.16 0.16 0.16 0.16 0.15 0.14 0.13 0.13 0.14
0.05 0.04 0.03 0.02 0.01 0.01 0.02 0.02 0.03 0.05 0.05 0.06 0.05 0.01 0.02 0.03 0.12 0.12 0.10 0.11 0.15 0.16 0.19 0.15 0.16 0.18 0.21 0.24 0.26 0.25 0.21 0.21 0.23 0.24 0.26 0.26 0.27 0.28
0.05 0.05 0.01 0.00 0.00 0.01 0.04 0.06 0.07 0.07 0.06 0.09 0.07 0.05 0.05 0.12 0.19 0.20 0.23 0.19 0.23 0.24 0.23 0.16 0.15 0.18 0.26 0.37 0.36 0.38 0.44 0.46 0.42 0.37 0.34 0.31 0.28 0.28
0.04 0.03 0.03 0.01 0.00 0.00 0.01 0.03 0.11 0.15 0.12 0.11 0.13 0.19 0.21 0.26 0.20 0.16 0.22 0.26 0.30 0.32 0.34 0.35 0.34 0.36 0.38 0.45 0.74 0.59 0.43 0.33 0.29 0.29 0.31 0.32 0.32 0.33
0.03 0.02 0.05 0.04 0.05 0.00 0.02 0.03 0.05 0.09 0.17 0.20 0.24 0.30 0.33 0.35 0.41 0.52 0.66 0.76 0.77 0.78 0.78 0.77 0.63 0.56 0.50 0.61 0.76 0.45 0.36 0.35 0.34 0.33 0.32 0.31 0.31 0.36
0.06 0.06 0.04 0.06 0.14 0.13 0.03 0.03 0.08 0.16 0.28 0.45 0.64 0.85 0.91 0.87 0.95 1.12 1.24 1.32 1.38 1.29 1.10 0.98 0.83 0.73 0.62 0.56 0.72 0.53 0.41 0.36 0.37 0.37 0.35 0.34 0.36 0.37
0.15 0.19 0.19 0.08 0.32 0.28 0.16 0.25 0.50 0.62 0.80 0.78 0.67 0.76 0.81 0.72 0.62 0.56 0.72 0.96 1.22 1.16 0.99 0.85 0.86 0.84 0.80 0.75 0.73 0.63 0.47 0.36 0.31 0.27 0.23 0.18 0.14 0.12
0.38 0.37 0.53 0.27 0.29 0.28 0.24 0.25 0.61 0.89 0.87 0.93 0.93 0.89 0.77 0.72 0.78 0.57 0.47 0.55 0.70 0.80 0.78 0.77 0.79 0.78 0.70 0.59 0.51 0.44 0.35 0.28 0.21 0.15 0.11 0.08 0.06 0.05
0.61 0.63 0.69 0.92 0.66 0.72 0.79 0.78 1.34 1.44 1.41 1.09 0.97 0.94 0.94 0.94 0.91 0.87 0.81 0.78 0.78 0.82 0.79 0.73 0.66 0.58 0.51 0.41 0.32 0.28 0.23 0.18 0.13 0.08 0.06 0.04 0.02 0.01
0.45 0.50 0.62 0.72 0.61 0.70 0.82 1.09 1.31 1.26 1.23 1.28 1.25 1.21 1.14 1.05 0.95 0.83 0.71 0.61 0.53 0.47 0.41 0.31 0.28 0.24 0.23 0.20 0.16 0.11 0.09 0.08 0.05 0.04 0.02 0.01 0.00 0.00
0.66 0.94 1.05 0.98 0.89 0.90 0.95 1.02 1.08 1.13 1.21 1.24 1.21 1.13 0.98 0.80 0.59 0.44 0.32 0.24 0.19 0.15 0.11 0.08 0.08 0.08 0.07 0.07 0.05 0.03 0.01 0.01 0.00 0.00 0.00 0.00 0.00 0.00
0.94 1.03 1.02 0.99 0.96 0.95 0.91 0.85 0.81 0.78 0.69 0.61 0.54 0.47 0.39 0.31 0.25 0.21 0.17 0.14 0.10 0.06 0.02 0.00 0.00 0.00 0.00 0.00 0.00 0.00 0.00 0.00 0.00 0.00 0.00 0.00 0.00 0.00
0.66 0.63 0.62 0.57 0.52 0.50 0.46 0.44 0.42 0.38 0.34 0.33 0.27 0.23 0.16 0.11 0.06 0.02 0.01 0.00 0.00 0.00 0.00 0.00 0.00 0.00 0.00 0.00 0.00 0.00 0.00 0.00 0.00 0.01 0.02 0.00 0.00 0.00
0.37 0.39 0.41 0.41 0.39 0.37 0.34 0.31 0.27 0.22 0.19 0.13 0.09 0.06 0.03 0.01 0.00 0.00 0.00 0.00 0.00 0.00 0.00 0.00 0.00 0.00 0.00 0.00 0.00 0.00 0.00 0.00 0.00 0.00 0.00 0.00 0.00 0.00
0.19 0.23 0.24 0.23 0.22 0.20 0.18 0.15 0.13 0.10 0.06 0.03 0.01 0.00 0.00 0.00 0.00 0.00 0.00 0.00 0.00 0.00 0.00 0.00 0.00 0.00 0.01 0.01 0.00 0.00 0.00 0.00 0.00 0.00 0.00 0.00 0.00 0.00
0.13 0.13 0.14 0.13 0.11 0.10 0.08 0.05 0.03 0.01 0.00 0.00 0.00 0.00 0.00 0.00 0.00 0.00 0.00 0.00 0.00 0.00 0.00 0.00 0.00 0.00 0.01 0.01 0.00 0.00 0.00 0.00 0.00 0.00 0.00 0.00 0.00 0.00
0.10 0.09 0.08 0.06 0.03 0.02 0.01 0.00 0.00 0.00 0.00 0.00 0.00 0.00 0.00 0.00 0.00 0.00 0.00 0.00 0.00 0.00 0.00 0.00 0.00 0.00 0.00 0.00 0.00 0.00 0.00 0.00 0.00 0.00 0.00 0.02 0.01 0.00
0.03 0.02 0.00 0.00 0.00 0.00 0.00 0.00 0.00 0.00 0.00 0.00 0.00 0.00 0.00 0.00 0.00 0.00 0.00 0.00 0.00 0.00 0.00 0.00 0.00 0.00 0.00 0.00 0.00 0.00 0.00 0.00 0.00 0.00 0.00 0.03 0.09 0.10
0.01 0.00 0.00 0.00 0.00 0.00 0.00 0.00 0.00 0.00 0.00 0.00 0.00 0.00 0.00 0.00 0.00 0.00 0.00 0.00 0.00 0.00 0.00 0.00 0.00 0.00 0.00 0.00 0.00 0.00 0.00 0.00 0.00 0.00 0.00 0.00 0.01 0.02

GFSNE_prec_precacc24_102.txt.gz
Total_Precipitation_Accumulation
0.23 0.23 0.17 0.09 0.04 0.03 0.02 0.01 0.06 0.05 0.02 0.01 0.01 0.00 0.01 0.00 0.00 0.00 0.00 0.00 0.00 0.00 0.00 0.00 0.00 0.00 0.00 0.00 0.00 0.00 0.00 0.00 0.01 0.02 0.03 0.03 0.05 0.05
0.28 0.29 0.27 0.15 0.11 0.08 0.07 0.05 0.07 0.11 0.07 0.01 0.02 0.03 0.06 0.06 0.03 0.05 0.03 0.02 0.01 0.00 0.01 0.00 0.00 0.01 0.00 0.01 0.01 0.03 0.04 0.05 0.05 0.05 0.05 0.05 0.05 0.05
0.34 0.33 0.25 0.20 0.14 0.14 0.14 0.12 0.10 0.15 0.13 0.04 0.03 0.02 0.09 0.08 0.05 0.05 0.06 0.02 0.00 0.02 0.04 0.03 0.03 0.02 0.02 0.01 0.02 0.05 0.07 0.08 0.08 0.08 0.09 0.09 0.09 0.09
0.37 0.28 0.25 0.23 0.19 0.11 0.12 0.10 0.08 0.06 0.09 0.08 0.01 0.02 0.03 0.06 0.05 0.05 0.04 0.03 0.01 0.02 0.03 0.03 0.02 0.01 0.02 0.01 0.02 0.04 0.07 0.08 0.10 0.11 0.12 0.11 0.12 0.13
0.35 0.31 0.25 0.20 0.16 0.09 0.08 0.06 0.05 0.03 0.03 0.05 0.01 0.03 0.04 0.05 0.07 0.05 0.03 0.03 0.01 0.01 0.05 0.05 0.02 0.01 0.02 0.04 0.06 0.10 0.13 0.17 0.19 0.18 0.17 0.17 0.17 0.18
0.33 0.35 0.31 0.21 0.13 0.08 0.09 0.07 0.06 0.06 0.04 0.06 0.05 0.02 0.02 0.01 0.05 0.04 0.04 0.06 0.09 0.13 0.15 0.11 0.08 0.08 0.10 0.16 0.22 0.25 0.22 0.18 0.16 0.18 0.23 0.27 0.31 0.32
0.35 0.37 0.32 0.31 0.26 0.16 0.13 0.11 0.12 0.11 0.06 0.06 0.05 0.03 0.03 0.05 0.07 0.07 0.09 0.04 0.06 0.06 0.08 0.11 0.12 0.15 0.19 0.26 0.23 0.20 0.18 0.22 0.25 0.27 0.28 0.28 0.28 0.28
0.42 0.37 0.43 0.40 0.30 0.24 0.13 0.08 0.15 0.16 0.11 0.09 0.10 0.14 0.11 0.09 0.07 0.05 0.05 0.05 0.10 0.11 0.12 0.16 0.17 0.19 0.20 0.22 0.49 0.31 0.21 0.20 0.22 0.24 0.27 0.29 0.31 0.32
0.49 0.43 0.42 0.32 0.31 0.20 0.15 0.10 0.08 0.09 0.13 0.11 0.11 0.16 0.22 0.24 0.31 0.36 0.44 0.49 0.49 0.52 0.56 0.57 0.47 0.44 0.39 0.47 0.62 0.33 0.27 0.28 0.31 0.32 0.31 0.30 0.31 0.35
0.34 0.37 0.29 0.26 0.39 0.31 0.13 0.14 0.15 0.17 0.25 0.35 0.50 0.68 0.71 0.67 0.77 0.89 0.96 1.02 1.09 1.03 0.90 0.83 0.68 0.57 0.47 0.43 0.63 0.45 0.36 0.34 0.36 0.36 0.34 0.34 0.36 0.37
0.32 0.40 0.44 0.30 0.59 0.54 0.34 0.43 0.59 0.63 0.71 0.65 0.57 0.62 0.62 0.54 0.48 0.45 0.58 0.80 1.06 1.03 0.89 0.80 0.81 0.75 0.71 0.68 0.66 0.58 0.45 0.35 0.31 0.27 0.23 0.18 0.14 0.12
0.45 0.48 0.71 0.44 0.51 0.39 0.31 0.33 0.65 0.90 0.88 0.88 0.83 0.75 0.62 0.55 0.58 0.37 0.30 0.42 0.59 0.69 0.71 0.71 0.75 0.73 0.67 0.58 0.49 0.42 0.35 0.27 0.20 0.15 0.11 0.08 0.06 0.05
0.59 0.59 0.69 0.89 0.69 0.74 0.79 0.81 1.23 1.27 1.23 0.94 0.79 0.70 0.63 0.57 0.57 0.61 0.64 0.65 0.66 0.70 0.74 0.70 0.64 0.57 0.51 0.41 0.32 0.28 0.23 0.18 0.13 0.08 0.06 0.04 0.02 0.01
0.45 0.44 0.54 0.60 0.56 0.63 0.72 0.94 1.05 1.00 0.94 0.94 0.88 0.83 0.78 0.76 0.76 0.72 0.65 0.56 0.48 0.43 0.37 0.28 0.26 0.23 0.22 0.20 0.16 0.11 0.09 0.08 0.05 0.04 0.02 0.01 0.00 0.00
0.38 0.59 0.64 0.60 0.55 0.53 0.53 0.54 0.56 0.57 0.63 0.67 0.67 0.66 0.64 0.58 0.45 0.34 0.24 0.18 0.14 0.11 0.09 0.07 0.08 0.08 0.07 0.07 0.05 0.03 0.01 0.01 0.00 0.00 0.00 0.00 0.00 0.00
0.45 0.41 0.34 0.28 0.26 0.29 0.31 0.34 0.33 0.31 0.27 0.26 0.25 0.24 0.21 0.17 0.15 0.15 0.13 0.12 0.09 0.06 0.02 0.00 0.00 0.00 0.00 0.00 0.00 0.00 0.00 0.00 0.00 0.00 0.00 0.00 0.00 0.00
0.19 0.16 0.13 0.11 0.10 0.09 0.08 0.09 0.10 0.11 0.11 0.13 0.11 0.10 0.08 0.05 0.03 0.01 0.01 0.00 0.00 0.00 0.00 0.00 0.00 0.00 0.00 0.00 0.00 0.00 0.00 0.00 0.00 0.00 0.00 0.00 0.00 0.00
0.02 0.04 0.05 0.04 0.03 0.04 0.05 0.05 0.05 0.05 0.05 0.04 0.03 0.02 0.01 0.00 0.00 0.00 0.00 0.00 0.00 0.00 0.00 0.00 0.00 0.00 0.00 0.00 0.00 0.00 0.00 0.00 0.00 0.00 0.00 0.00 0.00 0.00
0.09 0.10 0.10 0.09 0.07 0.06 0.06 0.05 0.05 0.04 0.02 0.01 0.01 0.00 0.00 0.00 0.00 0.00 0.00 0.00 0.00 0.00 0.00 0.00 0.00 0.00 0.00 0.00 0.00 0.00 0.00 0.00 0.00 0.00 0.00 0.00 0.00 0.00
0.10 0.12 0.13 0.12 0.11 0.09 0.07 0.06 0.04 0.02 0.01 0.01 0.00 0.00 0.00 0.00 0.00 0.00 0.00 0.00 0.00 0.00 0.00 0.00 0.00 0.00 0.00 0.00 0.00 0.00 0.00 0.00 0.00 0.00 0.00 0.00 0.00 0.00
0.01 0.01 0.01 0.01 0.01 0.01 0.01 0.01 0.00 0.00 0.00 0.00 0.00 0.00 0.00 0.00 0.00 0.00 0.00 0.00 0.00 0.00 0.00 0.00 0.00 0.00 0.00 0.00 0.00 0.00 0.00 0.00 0.00 0.00 0.00 0.01 0.00 0.00
0.00 0.00 0.00 0.00 0.00 0.00 0.00 0.00 0.00 0.00 0.00 0.00 0.00 0.00 0.00 0.00 0.00 0.00 0.00 0.00 0.00 0.00 0.00 0.00 0.00 0.00 0.00 0.00 0.00 0.00 0.00 0.00 0.00 0.00 0.00 0.01 0.04 0.06
0.00 0.00 0.00 0.00 0.00 0.00 0.00 0.00 0.00 0.00 0.00 0.00 0.00 0.00 0.00 0.00 0.00 0.00 0.00 0.00 0.00 0.00 0.00 0.00 0.00 0.00 0.00 0.00 0.00 0.00 0.00 0.00 0.00 0.00 0.00 0.00 0.00 0.00

GFSNE_prec_precacc24_105.txt.gz
Total_Precipitation_Accumulation
0.25 0.25 0.18 0.09 0.04 0.04 0.02 0.01 0.05 0.05 0.02 0.01 0.01 0.00 0.01 0.00 0.00 0.00 0.00 0.00 0.00 0.00 0.00 0.00 0.00 0.00 0.00 0.00 0.00 0.00 0.00 0.00 0.01 0.02 0.03 0.03 0.05 0.05
0.32 0.32 0.31 0.22 0.13 0.08 0.07 0.05 0.06 0.11 0.07 0.01 0.02 0.03 0.06 0.06 0.03 0.05 0.03 0.02 0.01 0.00 0.01 0.00 0.01 0.01 0.00 0.00 0.00 0.00 0.00 0.00 0.00 0.00 0.01 0.03 0.05 0.05
0.45 0.43 0.32 0.26 0.19 0.16 0.16 0.15 0.11 0.14 0.12 0.04 0.03 0.02 0.09 0.08 0.05 0.05 0.06 0.03 0.01 0.03 0.05 0.04 0.03 0.02 0.02 0.01 0.00 0.00 0.00 0.00 0.00 0.01 0.03 0.06 0.08 0.10
0.53 0.44 0.40 0.37 0.31 0.20 0.17 0.12 0.10 0.06 0.09 0.08 0.01 0.02 0.03 0.06 0.06 0.05 0.05 0.04 0.06 0.06 0.04 0.03 0.02 0.01 0.01 0.00 0.01 0.01 0.01 0.01 0.02 0.03 0.06 0.08 0.10 0.13
0.60 0.52 0.40 0.32 0.31 0.25 0.17 0.12 0.07 0.07 0.04 0.05 0.02 0.03 0.04 0.06 0.08 0.06 0.05 0.07 0.04 0.04 0.06 0.05 0.02 0.01 0.00 0.00 0.00 0.01 0.03 0.08 0.13 0.15 0.14 0.14 0.12 0.11
0.62 0.55 0.46 0.37 0.24 0.20 0.19 0.17 0.14 0.13 0.11 0.08 0.07 0.05 0.04 0.04 0.07 0.07 0.07 0.09 0.12 0.14 0.15 0.10 0.07 0.07 0.08 0.09 0.12 0.13 0.11 0.09 0.08 0.09 0.11 0.12 0.14 0.17
0.54 0.62 0.50 0.47 0.48 0.34 0.27 0.26 0.26 0.23 0.15 0.14 0.10 0.07 0.07 0.08 0.09 0.08 0.11 0.07 0.08 0.06 0.08 0.11 0.12 0.14 0.18 0.19 0.14 0.12 0.10 0.10 0.12 0.15 0.16 0.16 0.17 0.19
0.67 0.56 0.63 0.64 0.63 0.62 0.40 0.28 0.30 0.32 0.27 0.20 0.18 0.19 0.13 0.11 0.09 0.07 0.06 0.06 0.10 0.11 0.12 0.15 0.16 0.18 0.18 0.19 0.43 0.26 0.17 0.16 0.16 0.18 0.20 0.23 0.26 0.29
0.81 0.75 0.69 0.62 0.59 0.50 0.47 0.35 0.27 0.21 0.25 0.23 0.24 0.22 0.25 0.26 0.33 0.38 0.43 0.47 0.45 0.44 0.46 0.49 0.43 0.40 0.37 0.47 0.64 0.32 0.23 0.23 0.24 0.25 0.26 0.27 0.29 0.33
0.67 0.70 0.66 0.63 0.67 0.57 0.43 0.42 0.36 0.31 0.34 0.41 0.54 0.72 0.75 0.70 0.78 0.85 0.87 0.88 0.92 0.84 0.73 0.70 0.61 0.55 0.48 0.44 0.64 0.42 0.31 0.30 0.31 0.33 0.33 0.33 0.35 0.36
0.58 0.70 0.75 0.70 0.93 0.82 0.56 0.66 0.81 0.81 0.87 0.76 0.64 0.67 0.65 0.56 0.47 0.43 0.50 0.65 0.85 0.81 0.74 0.72 0.74 0.70 0.67 0.63 0.60 0.53 0.40 0.33 0.29 0.26 0.22 0.18 0.14 0.12
0.56 0.61 0.82 0.64 0.76 0.64 0.56 0.59 0.87 1.09 1.01 0.96 0.87 0.75 0.59 0.50 0.48 0.31 0.27 0.31 0.40 0.47 0.51 0.55 0.60 0.63 0.61 0.54 0.44 0.38 0.31 0.25 0.19 0.15 0.11 0.08 0.06 0.05
0.48 0.53 0.68 0.93 0.80 0.89 0.94 0.95 1.30 1.28 1.19 0.94 0.79 0.69 0.61 0.50 0.44 0.41 0.37 0.35 0.37 0.42 0.49 0.53 0.54 0.54 0.51 0.42 0.32 0.26 0.20 0.16 0.12 0.08 0.05 0.03 0.02 0.01
0.34 0.32 0.39 0.41 0.42 0.48 0.53 0.71 0.75 0.73 0.69 0.62 0.54 0.47 0.45 0.44 0.39 0.33 0.30 0.29 0.29 0.29 0.30 0.25 0.24 0.21 0.19 0.17 0.15 0.10 0.08 0.08 0.05 0.04 0.02 0.01 0.00 0.00
0.25 0.39 0.40 0.32 0.30 0.32 0.33 0.33 0.32 0.30 0.32 0.32 0.30 0.27 0.23 0.22 0.18 0.16 0.14 0.12 0.09 0.08 0.07 0.06 0.06 0.07 0.06 0.07 0.05 0.03 0.01 0.01 0.00 0.00 0.00 0.00 0.00 0.00
0.33 0.29 0.23 0.19 0.17 0.21 0.24 0.25 0.23 0.20 0.18 0.16 0.14 0.11 0.07 0.05 0.03 0.04 0.04 0.05 0.04 0.03 0.01 0.00 0.00 0.00 0.00 0.00 0.00 0.00 0.00 0.00 0.00 0.00 0.00 0.00 0.00 0.00
0.23 0.18 0.14 0.12 0.10 0.09 0.07 0.06 0.05 0.05 0.04 0.03 0.02 0.02 0.01 0.00 0.00 0.00 0.00 0.00 0.00 0.00 0.00 0.00 0.00 0.00 0.00 0.00 0.00 0.00 0.00 0.00 0.00 0.00 0.00 0.00 0.00 0.00
0.07 0.08 0.09 0.07 0.06 0.05 0.04 0.03 0.02 0.01 0.01 0.00 0.00 0.00 0.00 0.00 0.00 0.00 0.00 0.00 0.00 0.00 0.00 0.01 0.01 0.01 0.00 0.00 0.00 0.00 0.00 0.00 0.00 0.00 0.00 0.00 0.00 0.00
0.14 0.15 0.14 0.13 0.11 0.09 0.07 0.05 0.04 0.03 0.02 0.02 0.02 0.02 0.02 0.02 0.02 0.02 0.02 0.01 0.01 0.00 0.00 0.00 0.00 0.00 0.00 0.00 0.00 0.00 0.00 0.00 0.00 0.00 0.00 0.00 0.00 0.00
0.13 0.14 0.15 0.14 0.13 0.12 0.10 0.08 0.06 0.05 0.04 0.03 0.03 0.03 0.03 0.03 0.02 0.01 0.00 0.00 0.00 0.00 0.00 0.00 0.00 0.00 0.00 0.00 0.00 0.00 0.00 0.00 0.00 0.00 0.00 0.00 0.00 0.00
0.00 0.00 0.01 0.01 0.01 0.00 0.01 0.01 0.00 0.00 0.00 0.00 0.00 0.00 0.00 0.00 0.00 0.00 0.00 0.00 0.00 0.00 0.00 0.00 0.00 0.00 0.00 0.00 0.00 0.00 0.00 0.00 0.00 0.00 0.00 0.00 0.00 0.00
0.00 0.00 0.00 0.00 0.00 0.00 0.00 0.00 0.00 0.00 0.00 0.00 0.00 0.00 0.00 0.00 0.00 0.00 0.00 0.00 0.00 0.00 0.00 0.00 0.00 0.00 0.00 0.00 0.00 0.00 0.00 0.00 0.00 0.00 0.00 0.01 0.02 0.04
0.00 0.00 0.00 0.00 0.00 0.00 0.00 0.00 0.00 0.00 0.00 0.00 0.00 0.00 0.00 0.00 0.00 0.00 0.00 0.00 0.00 0.00 0.00 0.00 0.00 0.00 0.00 0.00 0.00 0.00 0.00 0.00 0.00 0.00 0.00 0.00 0.00 0.00

GFSNE_prec_precacc24_108.txt.gz
Total_Precipitation_Accumulation
0.25 0.26 0.18 0.09 0.05 0.05 0.04 0.03 0.08 0.08 0.05 0.02 0.01 0.00 0.01 0.00 0.00 0.00 0.00 0.00 0.00 0.00 0.00 0.00 0.00 0.00 0.00 0.00 0.00 0.00 0.00 0.00 0.00 0.00 0.00 0.00 0.01 0.03
0.31 0.31 0.30 0.21 0.14 0.10 0.09 0.06 0.08 0.12 0.07 0.01 0.02 0.03 0.06 0.06 0.03 0.05 0.03 0.02 0.01 0.00 0.01 0.00 0.01 0.01 0.00 0.00 0.00 0.00 0.00 0.00 0.00 0.00 0.00 0.00 0.00 0.00
0.45 0.44 0.32 0.26 0.23 0.18 0.17 0.16 0.13 0.15 0.11 0.03 0.03 0.02 0.09 0.08 0.05 0.05 0.06 0.03 0.01 0.03 0.05 0.04 0.03 0.02 0.02 0.01 0.00 0.00 0.00 0.00 0.00 0.00 0.00 0.00 0.01 0.01
0.54 0.47 0.47 0.46 0.40 0.24 0.20 0.15 0.13 0.10 0.11 0.08 0.01 0.02 0.03 0.06 0.06 0.05 0.05 0.04 0.06 0.06 0.04 0.03 0.02 0.01 0.01 0.00 0.00 0.00 0.00 0.00 0.01 0.01 0.01 0.01 0.02 0.03
0.65 0.60 0.49 0.46 0.47 0.34 0.21 0.15 0.11 0.10 0.07 0.08 0.04 0.04 0.04 0.06 0.08 0.06 0.05 0.07 0.04 0.04 0.07 0.06 0.02 0.01 0.00 0.00 0.00 0.01 0.03 0.06 0.07 0.07 0.07 0.08 0.07 0.07
0.65 0.62 0.60 0.51 0.37 0.34 0.29 0.22 0.20 0.21 0.18 0.13 0.12 0.07 0.05 0.05 0.09 0.08 0.07 0.10 0.13 0.15 0.16 0.10 0.08 0.07 0.08 0.09 0.12 0.12 0.10 0.07 0.05 0.06 0.08 0.09 0.12 0.13
0.56 0.66 0.65 0.69 0.67 0.50 0.37 0.34 0.31 0.31 0.26 0.24 0.18 0.13 0.10 0.10 0.12 0.12 0.15 0.12 0.13 0.11 0.11 0.12 0.13 0.14 0.18 0.19 0.14 0.10 0.07 0.07 0.11 0.14 0.15 0.15 0.14 0.15
0.77 0.67 0.82 0.88 0.84 0.87 0.61 0.45 0.44 0.43 0.34 0.29 0.27 0.25 0.16 0.15 0.15 0.17 0.20 0.15 0.15 0.14 0.15 0.17 0.16 0.18 0.19 0.18 0.40 0.20 0.12 0.13 0.14 0.16 0.18 0.20 0.23 0.26
1.02 0.95 0.86 0.84 0.82 0.74 0.76 0.60 0.52 0.47 0.45 0.36 0.36 0.31 0.31 0.29 0.37 0.48 0.56 0.56 0.50 0.46 0.50 0.52 0.44 0.41 0.35 0.41 0.53 0.24 0.15 0.14 0.14 0.16 0.18 0.20 0.23 0.28
0.74 0.83 0.90 0.87 0.88 0.81 0.69 0.72 0.69 0.67 0.67 0.66 0.76 0.90 0.91 0.85 0.93 0.95 0.96 0.97 0.98 0.85 0.70 0.65 0.53 0.44 0.36 0.31 0.51 0.28 0.17 0.16 0.17 0.20 0.23 0.26 0.30 0.32
0.61 0.76 0.92 0.96 1.26 1.17 0.85 1.03 1.19 1.19 1.25 1.08 0.87 0.85 0.76 0.68 0.61 0.55 0.64 0.71 0.82 0.76 0.64 0.60 0.60 0.54 0.47 0.41 0.40 0.35 0.20 0.15 0.13 0.13 0.13 0.13 0.11 0.11
0.47 0.56 0.83 0.78 1.04 1.06 0.95 0.92 1.09 1.27 1.17 1.14 1.05 0.88 0.68 0.55 0.52 0.41 0.41 0.41 0.39 0.43 0.42 0.40 0.40 0.38 0.36 0.31 0.26 0.23 0.17 0.13 0.10 0.08 0.06 0.06 0.05 0.04
0.38 0.42 0.58 0.83 0.81 1.01 1.13 1.05 1.17 1.09 0.96 0.73 0.63 0.55 0.49 0.38 0.30 0.30 0.29 0.29 0.30 0.30 0.32 0.29 0.27 0.29 0.31 0.29 0.25 0.22 0.16 0.12 0.08 0.05 0.04 0.03 0.02 0.01
0.35 0.29 0.31 0.28 0.29 0.34 0.41 0.61 0.59 0.51 0.42 0.39 0.37 0.35 0.29 0.24 0.23 0.21 0.20 0.19 0.17 0.19 0.23 0.21 0.19 0.22 0.23 0.20 0.15 0.10 0.06 0.05 0.03 0.03 0.02 0.01 0.00 0.00
0.28 0.43 0.42 0.32 0.29 0.28 0.29 0.29 0.28 0.25 0.26 0.27 0.28 0.28 0.25 0.21 0.11 0.07 0.07 0.08 0.07 0.08 0.08 0.07 0.07 0.07 0.05 0.04 0.02 0.01 0.00 0.00 0.00 0.00 0.00 0.00 0.00 0.00
0.38 0.32 0.26 0.21 0.19 0.26 0.31 0.31 0.28 0.24 0.20 0.18 0.18 0.18 0.15 0.10 0.06 0.03 0.02 0.02 0.01 0.01 0.01 0.00 0.00 0.00 0.00 0.00 0.00 0.00 0.00 0.00 0.00 0.00 0.00 0.00 0.00 0.00
0.32 0.25 0.19 0.16 0.14 0.14 0.12 0.11 0.11 0.11 0.11 0.11 0.09 0.08 0.06 0.05 0.04 0.03 0.03 0.02 0.02 0.01 0.01 0.00 0.00 0.00 0.00 0.00 0.00 0.00 0.00 0.00 0.00 0.00 0.00 0.00 0.00 0.00
0.12 0.14 0.15 0.12 0.11 0.11 0.10 0.10 0.08 0.06 0.05 0.03 0.03 0.03 0.03 0.02 0.01 0.01 0.01 0.01 0.01 0.01 0.01 0.02 0.02 0.02 0.02 0.01 0.01 0.00 0.00 0.00 0.00 0.00 0.00 0.00 0.00 0.00
0.17 0.18 0.18 0.16 0.15 0.12 0.11 0.09 0.08 0.07 0.05 0.03 0.03 0.04 0.04 0.04 0.03 0.03 0.03 0.02 0.02 0.02 0.03 0.02 0.02 0.02 0.01 0.01 0.00 0.00 0.00 0.00 0.00 0.00 0.00 0.00 0.00 0.00
0.15 0.17 0.18 0.16 0.15 0.14 0.12 0.10 0.08 0.07 0.05 0.04 0.04 0.04 0.04 0.03 0.02 0.01 0.01 0.00 0.00 0.00 0.00 0.00 0.00 0.00 0.00 0.00 0.00 0.00 0.00 0.00 0.00 0.00 0.00 0.00 0.00 0.00
0.00 0.01 0.01 0.01 0.01 0.01 0.01 0.01 0.00 0.01 0.00 0.00 0.00 0.00 0.01 0.00 0.00 0.00 0.00 0.00 0.00 0.00 0.00 0.00 0.00 0.00 0.00 0.00 0.00 0.00 0.00 0.00 0.00 0.00 0.00 0.00 0.00 0.00
0.00 0.00 0.00 0.00 0.00 0.00 0.00 0.00 0.00 0.00 0.00 0.00 0.00 0.00 0.00 0.00 0.00 0.00 0.00 0.00 0.00 0.00 0.00 0.00 0.00 0.00 0.00 0.00 0.00 0.00 0.00 0.00 0.00 0.00 0.00 0.00 0.01 0.03
0.01 0.00 0.00 0.00 0.00 0.00 0.00 0.00 0.00 0.00 0.00 0.00 0.00 0.00 0.00 0.00 0.00 0.00 0.00 0.00 0.00 0.00 0.00 0.00 0.00 0.00 0.00 0.00 0.00 0.00 0.00 0.00 0.00 0.00 0.00 0.00 0.00 0.00

GFSNE_prec_precacc24_114.txt.gz
Total_Precipitation_Accumulation
0.28 0.28 0.21 0.11 0.06 0.06 0.06 0.04 0.08 0.11 0.07 0.03 0.02 0.02 0.02 0.02 0.03 0.02 0.01 0.00 0.00 0.00 0.00 0.00 0.00 0.00 0.00 0.00 0.00 0.00 0.00 0.00 0.00 0.00 0.01 0.01 0.02 0.02
0.34 0.32 0.31 0.22 0.15 0.10 0.10 0.07 0.08 0.13 0.09 0.02 0.03 0.04 0.08 0.09 0.04 0.08 0.04 0.03 0.01 0.00 0.01 0.00 0.01 0.01 0.00 0.00 0.00 0.00 0.00 0.00 0.00 0.00 0.00 0.00 0.00 0.00
0.47 0.44 0.31 0.25 0.19 0.15 0.13 0.12 0.09 0.10 0.08 0.03 0.03 0.04 0.12 0.12 0.09 0.07 0.07 0.04 0.01 0.03 0.05 0.04 0.03 0.02 0.02 0.01 0.00 0.00 0.00 0.00 0.00 0.00 0.00 0.00 0.01 0.01
0.55 0.48 0.47 0.43 0.35 0.22 0.16 0.11 0.09 0.09 0.10 0.07 0.04 0.05 0.06 0.08 0.08 0.07 0.06 0.05 0.06 0.06 0.04 0.03 0.02 0.01 0.01 0.00 0.00 0.00 0.00 0.00 0.01 0.01 0.01 0.01 0.02 0.02
0.67 0.61 0.51 0.49 0.49 0.37 0.25 0.18 0.13 0.12 0.11 0.15 0.12 0.09 0.05 0.07 0.15 0.15 0.09 0.09 0.05 0.05 0.07 0.06 0.02 0.01 0.00 0.00 0.00 0.01 0.03 0.06 0.07 0.07 0.07 0.08 0.07 0.06
0.64 0.62 0.61 0.55 0.42 0.39 0.36 0.29 0.26 0.27 0.23 0.19 0.21 0.18 0.14 0.10 0.13 0.16 0.19 0.19 0.16 0.15 0.15 0.10 0.08 0.07 0.08 0.09 0.12 0.12 0.10 0.07 0.05 0.06 0.08 0.10 0.12 0.14
0.55 0.66 0.65 0.71 0.70 0.54 0.43 0.43 0.42 0.44 0.43 0.42 0.37 0.26 0.22 0.21 0.20 0.17 0.18 0.15 0.15 0.12 0.11 0.11 0.13 0.14 0.17 0.18 0.13 0.10 0.06 0.07 0.09 0.12 0.13 0.13 0.12 0.11
0.77 0.67 0.82 0.90 0.88 0.92 0.67 0.54 0.55 0.54 0.49 0.44 0.42 0.39 0.23 0.19 0.21 0.26 0.30 0.22 0.19 0.16 0.17 0.20 0.19 0.20 0.19 0.17 0.31 0.17 0.10 0.10 0.09 0.07 0.05 0.04 0.04 0.04
1.02 0.95 0.86 0.88 0.92 0.86 0.96 0.91 0.91 0.88 0.69 0.52 0.47 0.37 0.33 0.32 0.40 0.58 0.65 0.56 0.49 0.41 0.49 0.61 0.51 0.44 0.34 0.32 0.36 0.18 0.11 0.08 0.05 0.03 0.02 0.02 0.02 0.03
0.73 0.80 0.88 0.86 0.86 0.85 0.88 0.97 1.00 1.02 1.05 1.02 0.99 0.98 0.90 0.83 0.90 0.85 0.79 0.79 0.85 0.76 0.65 0.62 0.45 0.38 0.34 0.30 0.44 0.18 0.08 0.06 0.05 0.05 0.04 0.04 0.04 0.04
0.55 0.70 0.88 0.95 1.22 1.21 1.03 1.19 1.27 1.28 1.42 1.42 1.35 1.20 1.05 1.02 0.98 0.88 0.98 0.81 0.85 0.68 0.61 0.61 0.52 0.46 0.41 0.34 0.30 0.27 0.11 0.08 0.08 0.09 0.07 0.05 0.03 0.03
0.36 0.47 0.75 0.76 1.03 1.08 0.98 0.96 1.07 1.24 1.16 1.22 1.28 1.22 1.21 1.22 1.28 1.11 0.95 0.81 0.73 0.76 0.62 0.58 0.58 0.48 0.49 0.42 0.32 0.27 0.16 0.17 0.16 0.13 0.09 0.04 0.03 0.02
0.40 0.43 0.55 0.75 0.77 0.99 1.11 1.05 1.12 1.05 1.03 0.94 0.93 0.94 0.90 0.87 0.90 0.89 0.84 0.81 0.73 0.70 0.60 0.53 0.51 0.50 0.48 0.45 0.36 0.31 0.24 0.27 0.20 0.14 0.10 0.05 0.02 0.01
0.42 0.35 0.38 0.33 0.33 0.41 0.49 0.70 0.67 0.59 0.53 0.59 0.62 0.64 0.63 0.67 0.71 0.74 0.74 0.72 0.69 0.69 0.67 0.57 0.55 0.49 0.40 0.38 0.35 0.31 0.27 0.21 0.14 0.09 0.07 0.04 0.01 0.00
0.40 0.55 0.51 0.37 0.33 0.33 0.37 0.37 0.33 0.27 0.29 0.33 0.38 0.47 0.52 0.56 0.52 0.49 0.49 0.51 0.52 0.56 0.55 0.51 0.48 0.52 0.41 0.33 0.29 0.25 0.22 0.17 0.11 0.06 0.03 0.01 0.00 0.00
0.45 0.39 0.32 0.28 0.26 0.34 0.39 0.39 0.36 0.35 0.30 0.27 0.26 0.25 0.22 0.21 0.20 0.20 0.22 0.29 0.31 0.36 0.34 0.33 0.33 0.32 0.32 0.28 0.23 0.21 0.15 0.09 0.05 0.02 0.00 0.00 0.01 0.00
0.38 0.31 0.25 0.21 0.20 0.22 0.22 0.22 0.23 0.25 0.25 0.28 0.26 0.25 0.22 0.17 0.15 0.14 0.15 0.15 0.17 0.22 0.23 0.22 0.20 0.17 0.16 0.15 0.14 0.12 0.09 0.05 0.02 0.01 0.00 0.00 0.00 0.00
0.15 0.18 0.21 0.20 0.19 0.20 0.22 0.24 0.25 0.25 0.26 0.24 0.22 0.22 0.22 0.23 0.23 0.21 0.18 0.17 0.16 0.17 0.17 0.19 0.18 0.18 0.16 0.15 0.12 0.12 0.09 0.05 0.02 0.01 0.01 0.01 0.00 0.00
0.18 0.21 0.21 0.20 0.19 0.19 0.18 0.17 0.18 0.19 0.18 0.17 0.17 0.18 0.17 0.16 0.14 0.13 0.12 0.10 0.11 0.11 0.11 0.10 0.09 0.08 0.09 0.10 0.07 0.05 0.04 0.02 0.01 0.00 0.00 0.00 0.00 0.00
0.16 0.17 0.19 0.18 0.17 0.16 0.15 0.14 0.13 0.13 0.11 0.11 0.11 0.11 0.11 0.10 0.09 0.09 0.08 0.06 0.05 0.04 0.03 0.02 0.02 0.03 0.03 0.03 0.02 0.01 0.00 0.00 0.00 0.00 0.00 0.00 0.00 0.00
0.00 0.01 0.01 0.01 0.01 0.01 0.01 0.01 0.01 0.01 0.01 0.01 0.01 0.01 0.01 0.01 0.01 0.01 0.01 0.00 0.00 0.00 0.00 0.00 0.00 0.00 0.00 0.00 0.00 0.00 0.00 0.00 0.00 0.00 0.00 0.00 0.00 0.00
0.01 0.00 0.00 0.00 0.00 0.00 0.00 0.00 0.00 0.00 0.00 0.00 0.00 0.00 0.00 0.00 0.00 0.00 0.00 0.00 0.00 0.00 0.00 0.00 0.00 0.00 0.00 0.00 0.00 0.00 0.00 0.00 0.00 0.00 0.00 0.00 0.01 0.01
0.01 0.00 0.01 0.00 0.00 0.00 0.00 0.00 0.00 0.00 0.00 0.00 0.00 0.00 0.00 0.00 0.00 0.00 0.00 0.00 0.00 0.00 0.00 0.00 0.00 0.00 0.00 0.00 0.00 0.00 0.00 0.00 0.00 0.00 0.00 0.00 0.00 0.00

GFSNE_prec_precacc24_117.txt.gz
Total_Precipitation_Accumulation
0.27 0.27 0.21 0.12 0.11 0.11 0.11 0.08 0.11 0.13 0.09 0.03 0.03 0.03 0.02 0.02 0.04 0.04 0.04 0.03 0.03 0.01 0.00 0.00 0.00 0.00 0.00 0.00 0.00 0.00 0.00 0.00 0.00 0.00 0.02 0.02 0.02 0.02
0.34 0.31 0.31 0.24 0.16 0.13 0.14 0.11 0.11 0.14 0.11 0.03 0.03 0.04 0.07 0.09 0.05 0.08 0.06 0.06 0.03 0.01 0.01 0.00 0.01 0.01 0.00 0.00 0.00 0.00 0.00 0.00 0.00 0.00 0.00 0.00 0.01 0.01
0.50 0.45 0.31 0.25 0.20 0.16 0.15 0.12 0.09 0.08 0.08 0.03 0.03 0.04 0.08 0.08 0.08 0.08 0.09 0.07 0.02 0.04 0.05 0.04 0.03 0.02 0.02 0.01 0.00 0.00 0.00 0.00 0.00 0.00 0.00 0.01 0.01 0.01
0.60 0.55 0.50 0.45 0.37 0.24 0.20 0.13 0.10 0.10 0.10 0.06 0.05 0.05 0.06 0.08 0.07 0.06 0.07 0.07 0.08 0.09 0.06 0.03 0.02 0.01 0.01 0.00 0.00 0.00 0.00 0.00 0.01 0.01 0.01 0.01 0.02 0.02
0.74 0.68 0.55 0.54 0.54 0.42 0.31 0.24 0.17 0.13 0.12 0.15 0.13 0.10 0.06 0.07 0.14 0.14 0.09 0.11 0.10 0.12 0.12 0.07 0.02 0.01 0.00 0.00 0.00 0.01 0.03 0.06 0.07 0.07 0.07 0.08 0.07 0.06
0.69 0.69 0.68 0.60 0.44 0.42 0.38 0.31 0.28 0.29 0.24 0.18 0.18 0.18 0.15 0.10 0.11 0.14 0.20 0.24 0.27 0.27 0.19 0.09 0.07 0.07 0.07 0.09 0.12 0.12 0.10 0.07 0.05 0.06 0.08 0.10 0.12 0.14
0.59 0.70 0.68 0.72 0.71 0.54 0.42 0.42 0.41 0.44 0.43 0.41 0.37 0.26 0.22 0.18 0.18 0.16 0.17 0.18 0.20 0.16 0.15 0.15 0.14 0.15 0.16 0.16 0.12 0.08 0.06 0.06 0.09 0.12 0.13 0.12 0.12 0.11
0.78 0.67 0.83 0.91 0.88 0.92 0.67 0.52 0.48 0.47 0.45 0.42 0.42 0.40 0.24 0.18 0.20 0.28 0.35 0.31 0.25 0.18 0.19 0.27 0.25 0.22 0.15 0.10 0.18 0.11 0.08 0.08 0.07 0.05 0.04 0.03 0.03 0.02
1.03 0.95 0.86 0.87 0.90 0.86 0.96 0.90 0.88 0.87 0.69 0.53 0.51 0.42 0.36 0.30 0.33 0.49 0.55 0.43 0.38 0.32 0.41 0.61 0.56 0.49 0.39 0.34 0.36 0.19 0.13 0.09 0.06 0.04 0.02 0.02 0.02 0.02
0.74 0.81 0.89 0.87 0.85 0.85 0.87 0.95 0.96 0.95 0.94 0.86 0.79 0.78 0.76 0.70 0.78 0.73 0.72 0.77 0.81 0.76 0.71 0.80 0.63 0.57 0.53 0.47 0.58 0.29 0.16 0.13 0.12 0.10 0.08 0.06 0.05 0.05
0.61 0.70 0.85 0.94 1.12 1.14 0.96 1.06 1.08 1.07 1.26 1.31 1.27 1.16 1.06 1.08 1.07 1.01 1.28 1.04 1.00 0.85 0.75 0.79 0.75 0.70 0.66 0.56 0.46 0.42 0.23 0.16 0.15 0.17 0.17 0.15 0.14 0.11
0.35 0.45 0.69 0.74 0.97 1.04 0.96 0.95 1.06 1.22 1.13 1.17 1.22 1.16 1.19 1.25 1.44 1.41 1.26 1.04 0.90 1.01 0.87 0.79 0.79 0.70 0.79 0.71 0.49 0.39 0.29 0.31 0.29 0.25 0.19 0.15 0.13 0.08
0.40 0.40 0.52 0.73 0.74 0.91 1.05 1.04 1.10 1.03 1.00 0.93 0.93 0.94 0.91 0.91 0.99 1.09 1.13 1.12 1.00 0.92 0.84 0.76 0.72 0.68 0.68 0.70 0.57 0.47 0.37 0.45 0.36 0.31 0.28 0.24 0.20 0.15
0.50 0.42 0.45 0.39 0.36 0.44 0.51 0.71 0.68 0.60 0.53 0.59 0.62 0.64 0.63 0.68 0.76 0.84 0.91 0.96 0.97 0.97 0.97 0.83 0.78 0.67 0.55 0.59 0.60 0.58 0.51 0.43 0.33 0.31 0.31 0.30 0.21 0.14
0.41 0.56 0.53 0.39 0.35 0.34 0.39 0.38 0.33 0.28 0.29 0.34 0.41 0.49 0.54 0.59 0.55 0.55 0.59 0.66 0.72 0.80 0.82 0.78 0.74 0.82 0.69 0.59 0.55 0.52 0.49 0.46 0.37 0.31 0.26 0.19 0.13 0.06
0.45 0.39 0.32 0.28 0.26 0.35 0.40 0.41 0.39 0.38 0.32 0.30 0.31 0.30 0.27 0.24 0.23 0.23 0.27 0.34 0.37 0.48 0.51 0.55 0.58 0.60 0.62 0.59 0.51 0.52 0.43 0.34 0.28 0.21 0.15 0.10 0.05 0.02
0.38 0.31 0.25 0.21 0.20 0.22 0.22 0.22 0.24 0.26 0.26 0.30 0.29 0.29 0.26 0.21 0.19 0.18 0.18 0.20 0.24 0.33 0.38 0.42 0.43 0.43 0.45 0.44 0.42 0.38 0.32 0.24 0.17 0.11 0.08 0.05 0.04 0.03
0.15 0.18 0.21 0.20 0.20 0.21 0.22 0.25 0.25 0.25 0.26 0.25 0.24 0.24 0.26 0.26 0.27 0.25 0.23 0.22 0.22 0.24 0.26 0.31 0.32 0.32 0.32 0.36 0.33 0.31 0.26 0.19 0.14 0.10 0.08 0.08 0.06 0.03
0.18 0.21 0.21 0.20 0.20 0.19 0.18 0.18 0.18 0.19 0.18 0.17 0.18 0.19 0.19 0.18 0.17 0.16 0.16 0.15 0.16 0.17 0.18 0.17 0.18 0.17 0.18 0.19 0.19 0.16 0.15 0.13 0.10 0.08 0.05 0.03 0.02 0.01
0.16 0.17 0.19 0.18 0.17 0.16 0.15 0.14 0.14 0.13 0.12 0.12 0.12 0.13 0.12 0.12 0.12 0.11 0.11 0.11 0.10 0.09 0.08 0.08 0.08 0.11 0.12 0.11 0.10 0.09 0.06 0.05 0.04 0.03 0.01 0.00 0.00 0.00
0.00 0.01 0.01 0.01 0.01 0.01 0.01 0.01 0.01 0.01 0.01 0.01 0.02 0.02 0.02 0.02 0.02 0.02 0.02 0.01 0.01 0.01 0.02 0.02 0.03 0.03 0.03 0.03 0.03 0.03 0.01 0.01 0.01 0.00 0.00 0.00 0.00 0.00
0.01 0.00 0.00 0.00 0.00 0.00 0.00 0.01 0.00 0.00 0.00 0.00 0.00 0.01 0.01 0.00 0.00 0.00 0.00 0.00 0.00 0.00 0.00 0.00 0.00 0.00 0.00 0.00 0.01 0.01 0.00 0.00 0.00 0.00 0.00 0.00 0.00 0.01
0.01 0.00 0.01 0.01 0.00 0.00 0.00 0.00 0.00 0.01 0.00 0.00 0.00 0.00 0.00 0.00 0.00 0.00 0.00 0.00 0.00 0.00 0.00 0.00 0.00 0.00 0.00 0.00 0.00 0.00 0.00 0.00 0.00 0.00 0.00 0.00 0.00 0.00